Location: Newark
(12.4436°N, 0.6167°W)
Time: 00:24:10
(UTC+00:00)

Vanguard 2 - Pass Details

Date: 09 December 2019
Orbit: 553 x 2938 km, 32.9° (Epoch: 17 January)

Event Time Altitude Azimuth Distance (km) Brightness Sun altitude
Rises 01:04:56 0° 255° (WSW) 5,403 - -70.3°
Reaches altitude 10° 01:08:09 10° 260° (W) 4,678 - -69.7°
Maximum altitude 01:22:09 57° 336° (NNW) 3,103 - -66.7°
Exits shadow 01:34:56 23° 45° (NE) 4,769 11.4 -64.0°
Drops below altitude 10° 01:39:48 10° 52° (NE) 5,716 12.0 -62.9°
Sets 01:44:17 0° 56° (NE) 6,621 12.5 -61.9°
